RH
50 48 39 30 29 25 19 17 18 23 30 33 29 24 24 23 24 26 25 27 32 39 46 49 47 47 46 46 45 40 38 37 38 39 35 33 40 47 49 47 44 43 42 39 36 37 38 41 46 49 50 50 48 47 47 45 45 45 45 46 47 46
51 52 47 39 34 28 22 18 17 21 28 35 31 25 27 27 25 27 24 23 30 41 47 49 48 47 46 45 43 39 37 35 37 39 36 40 50 56 56 54 50 48 47 43 40 38 38 42 48 51 52 54 53 51 50 47 46 47 48 49 51 51
53 53 53 51 46 35 24 19 17 19 26 35 31 25 26 27 26 25 23 20 26 41 48 48 48 46 46 46 42 38 35 33 36 39 40 47 56 59 62 62 57 52 50 47 44 42 43 48 51 52 52 53 52 51 52 51 50 51 52 53 54 54
54 52 56 57 54 42 28 20 16 19 24 32 32 26 23 25 24 23 24 20 25 41 48 48 47 46 47 46 42 36 30 29 35 40 45 52 57 60 65 65 60 57 56 54 53 51 51 52 51 50 51 52 52 52 55 55 55 55 56 56 57 58
46 46 53 60 58 47 34 24 17 18 23 30 32 27 23 23 23 23 24 21 26 40 46 48 47 47 49 47 43 34 26 30 39 44 49 54 56 60 63 63 63 64 62 59 58 58 56 55 55 51 51 51 52 54 56 57 58 58 58 58 59 60
42 39 45 58 62 54 39 26 18 17 21 28 31 29 24 22 23 23 23 22 26 36 43 46 46 48 51 49 43 31 27 36 44 47 50 52 55 60 63 61 63 64 63 59 56 56 54 54 56 55 54 54 55 56 58 59 60 60 60 59 61 61
47 42 41 49 57 59 47 28 20 17 19 26 29 29 26 22 23 23 22 24 25 32 40 43 43 48 52 50 41 30 31 42 48 47 47 50 54 60 61 59 60 61 61 59 54 52 50 49 49 49 49 52 57 60 61 61 60 60 60 59 62 63
51 47 44 43 49 60 55 33 21 18 18 24 27 29 29 24 23 22 24 28 28 31 39 40 42 48 51 49 41 32 35 46 53 50 45 47 52 56 56 56 58 59 61 60 58 55 52 51 47 41 39 40 46 55 61 62 61 61 60 60 62 63
48 49 49 49 54 63 63 42 22 18 18 21 25 30 31 26 24 22 26 34 33 31 35 38 42 47 50 49 43 37 40 50 58 53 46 48 49 51 52 52 55 58 60 61 60 58 57 57 52 44 40 36 35 44 55 62 63 61 59 58 57 58
51 56 56 58 61 65 70 54 29 17 17 20 23 30 32 29 25 22 28 40 38 30 33 40 44 49 51 48 45 45 48 52 58 57 50 49 48 48 49 49 52 54 58 61 61 61 63 63 58 52 48 42 35 34 42 51 56 57 54 50 46 47
58 65 67 67 68 67 69 63 44 23 15 19 22 28 32 31 27 24 34 47 44 32 31 42 47 50 52 47 47 54 56 54 57 60 54 52 52 48 46 48 51 53 55 60 62 64 67 65 61 59 55 50 43 37 35 38 42 44 43 39 36 36
64 72 75 75 74 71 69 69 58 32 17 17 21 27 32 34 30 29 46 58 49 35 32 43 48 49 51 48 50 60 63 60 57 59 57 53 55 50 44 46 48 51 54 58 63 66 68 65 61 61 60 57 50 44 40 36 36 35 33 31 30 31
70 76 77 76 75 76 77 73 60 36 20 16 19 26 32 36 33 35 54 62 49 37 35 47 51 48 53 52 54 62 63 63 58 55 56 50 57 58 45 42 43 47 53 56 60 62 62 61 59 58 59 58 52 48 46 43 41 39 35 32 31 30
77 79 78 76 77 81 82 74 59 42 27 21 18 24 33 37 36 38 51 60 53 41 35 47 55 49 55 58 59 63 60 63 57 51 53 47 57 65 46 39 39 38 46 52 54 56 57 56 55 56 55 53 50 48 48 48 47 45 43 42 40 37
82 81 82 82 84 85 83 75 64 50 37 29 21 23 32 36 38 37 42 54 56 51 41 44 58 54 57 66 66 64 60 64 58 49 51 45 50 59 48 46 45 37 41 50 51 50 51 51 51 53 52 49 46 44 45 46 48 47 48 50 49 48
83 81 85 87 86 86 88 83 69 56 46 39 26 23 30 35 38 35 39 48 46 55 54 46 56 58 58 66 67 64 61 63 59 51 52 46 44 48 49 56 55 46 44 51 55 49 45 46 45 46 46 46 43 39 39 41 46 48 49 51 49 50
81 83 87 89 89 88 92 91 76 64 58 47 34 29 29 33 40 37 40 45 38 50 58 47 50 55 57 61 59 59 59 60 59 55 52 48 46 48 50 54 53 51 50 53 57 50 44 40 36 35 35 37 35 30 29 32 38 43 46 47 47 48
79 83 85 89 91 86 87 92 85 75 69 59 44 37 32 30 38 42 41 41 37 42 46 42 47 51 53 53 50 52 53 55 58 55 50 48 49 50 51 51 50 55 57 56 52 45 43 38 31 28 25 25 24 22 24 25 28 31 34 38 42 45
77 80 78 79 83 82 84 91 92 84 79 76 57 40 36 32 34 43 44 38 35 37 36 35 40 45 45 41 41 47 47 47 50 48 46 45 45 45 46 47 49 51 49 48 44 38 37 35 31 31 28 26 25 25 26 26 28 28 26 29 33 37
68 73 73 72 73 78 80 86 94 90 83 87 75 49 40 36 34 41 45 39 33 33 31 28 32 36 34 30 31 37 39 39 39 37 38 38 37 37 37 37 38 37 34 34 35 33 33 33 34 35 33 33 31 32 35 36 39 38 32 30 30 31
66 68 69 70 71 73 76 81 92 95 86 89 89 71 54 43 38 41 45 44 36 32 29 25 27 29 27 25 25 26 28 30 30 29 30 30 30 30 31 30 29 30 29 30 32 33 33 34 35 34 33 34 34 35 41 44 45 44 41 37 36 36
66 69 68 69 69 67 71 78 86 94 92 91 95 90 73 53 44 45 46 46 41 32 30 27 26 27 26 26 25 25 25 24 24 25 26 27 27 28 29 28 28 29 30 31 33 35 35 34 34 32 32 33 33 34 39 43 46 51 52 48 48 49
63 72 73 70 71 68 68 72 77 87 91 92 95 97 87 64 53 53 49 47 44 33 29 28 26 25 26 26 26 27 27 26 25 26 26 27 27 28 28 28 29 29 30 32 33 35 35 34 33 32 31 31 32 33 35 37 41 52 58 52 51 53
61 70 73 70 71 72 71 68 71 80 87 89 91 95 92 73 60 61 56 50 46 38 29 26 25 25 25 26 26 27 27 28 28 28 28 28 28 29 29 29 29 29 30 30 30 32 32 32 32 31 31 31 33 34 34 35 37 43 47 43 41 44
57 62 67 70 72 74 72 69 70 74 80 83 83 88 94 84 67 61 61 55 48 42 35 27 25 25 25 25 25 26 26 27 28 28 28 28 28 28 29 29 29 29 30 29 29 30 30 32 33 33 33 32 33 34 35 36 37 39 42 42 41 41
47 55 61 69 74 74 71 69 69 69 71 75 79 83 92 93 73 58 61 60 52 46 41 32 26 25 25 25 25 25 26 26 27 27 27 28 28 28 28 28 29 29 29 29 30 29 32 36 38 38 38 38 38 38 39 42 44 46 48 51 51 49
39 51 61 70 76 76 73 69 69 70 71 75 81 85 93 94 76 63 64 62 54 51 48 40 30 26 26 25 25 24 26 27 27 27 27 27 27 27 29 30 30 30 30 29 29 33 41 44 44 45 46 45 45 46 50 54 54 54 54 56 60 59
34 46 59 71 76 78 75 71 72 74 73 78 83 87 94 89 76 72 72 65 55 48 52 52 40 31 28 26 26 25 25 27 27 27 27 27 27 29 31 32 32 31 30 29 31 37 47 49 49 52 52 50 52 55 56 58 59 61 60 58 61 65
35 43 57 71 76 77 73 72 79 81 76 77 81 87 96 92 82 80 79 75 65 51 51 61 58 48 37 28 26 26 26 27 27 27 28 28 29 31 32 33 35 34 32 33 35 38 43 48 50 54 56 56 59 62 62 63 65 66 62 56 56 63
46 49 65 79 78 75 71 70 77 82 79 78 80 87 96 96 91 90 84 80 77 66 56 60 67 64 53 38 28 27 27 27 28 29 30 31 32 33 33 35 37 37 36 36 38 37 37 43 48 52 57 60 64 68 67 67 67 68 69 65 59 60
59 63 75 82 77 73 72 71 73 77 79 79 83 91 97 96 94 95 89 80 78 77 71 66 66 64 58 48 37 30 28 28 29 29 30 32 32 34 34 35 37 36 35 34 36 37 36 39 44 49 56 60 64 68 69 68 63 61 66 69 67 65
67 79 79 76 74 71 69 73 77 79 80 81 81 87 95 95 92 91 88 81 78 81 80 70 57 53 57 56 46 35 29 28 29 30 31 32 32 34 35 36 37 35 34 33 35 36 36 38 39 42 50 55 57 61 65 66 59 52 53 54 56 58
66 78 74 73 77 76 74 75 75 76 82 87 83 82 90 93 91 90 87 83 81 80 79 67 51 50 58 61 54 41 31 30 30 30 32 32 33 35 35 36 37 36 35 34 34 35 36 36 36 37 44 51 55 57 59 61 56 50 50 49 46 46
62 59 62 76 81 75 74 75 72 73 78 87 91 89 91 93 91 90 88 85 83 80 80 73 63 60 64 66 62 48 35 32 32 34 35 37 38 38 36 36 36 36 35 35 35 36 35 35 35 33 36 45 52 53 53 57 54 48 46 46 43 43
64 56 57 72 77 68 65 66 68 73 75 80 90 92 91 94 94 93 92 88 84 82 82 80 77 74 71 68 66 59 46 36 36 40 40 41 41 39 37 35 33 33 33 35 36 36 36 36 35 33 37 47 52 51 50 50 49 48 45 41 40 42
61 69 67 66 70 69 67 67 69 77 79 77 84 91 94 97 97 96 95 90 87 85 83 82 80 75 68 64 65 68 60 48 47 48 43 42 41 39 38 36 33 32 30 31 33 34 35 34 32 35 44 54 55 55 53 46 44 47 47 43 41 42
50 68 75 72 72 70 70 72 72 79 83 81 86 94 99 99 96 96 96 91 88 87 83 78 74 69 66 65 66 66 55 45 47 47 42 42 40 39 42 41 37 34 31 30 29 30 32 31 32 40 48 51 50 54 57 55 55 55 53 50 49 49
Wind_Speed
22 16 14 13 14 15 17 18 18 18 17 16 16 16 15 13 12 10 9 8 10 11 10 10 12 13 12 12 11 10 10 11 11 11 12 12 12 12 12 12 11 9 8 8 8 8 9 11 13 13 11 9 8 8 7 7 6 5 6 6 7 8
26 19 16 14 13 14 16 18 19 19 18 18 17 17 15 14 12 10 9 8 10 12 11 10 12 13 12 11 10 10 10 11 11 12 12 12 12 12 13 12 11 10 10 9 8 9 9 11 12 11 10 9 7 6 6 7 7 6 6 7 8 8
25 19 17 15 14 15 16 18 19 18 18 18 17 16 15 13 12 10 9 9 11 13 12 11 12 13 12 11 10 10 10 11 12 12 12 12 12 12 12 12 11 11 11 10 10 10 10 11 10 9 9 8 7 7 7 8 7 6 6 7 8 8
24 18 17 17 16 15 15 17 18 18 18 18 17 16 14 13 12 11 10 9 11 14 13 11 12 12 12 11 10 9 10 11 12 13 12 12 11 12 12 12 11 11 11 11 11 11 11 11 10 8 8 7 7 7 7 8 8 7 7 7 8 8
24 21 19 18 17 16 16 17 18 18 18 18 18 17 15 13 12 11 9 8 11 14 13 12 12 12 12 11 10 9 10 12 13 12 12 12 11 12 13 12 12 11 11 11 11 11 11 11 11 9 8 7 7 6 7 8 9 8 7 7 8 8
19 24 24 20 18 17 17 17 18 19 19 18 18 17 16 15 13 11 9 8 10 13 13 12 12 13 12 12 11 10 11 13 13 12 12 12 11 12 12 12 12 12 11 11 11 11 11 11 11 9 8 7 6 6 6 7 8 8 8 8 8 8
15 21 25 23 20 19 19 18 19 20 20 19 19 18 17 15 14 12 9 9 10 11 13 13 13 13 13 12 12 12 13 13 12 11 11 11 11 11 11 11 12 12 11 11 11 11 11 12 12 10 9 8 6 6 6 6 7 7 7 7 8 8
13 17 23 25 22 21 20 20 20 21 21 21 20 19 18 16 15 13 11 10 11 11 13 13 14 14 14 14 13 13 13 13 12 11 10 10 10 10 10 10 11 12 12 11 11 12 13 14 13 12 11 9 7 6 6 6 6 6 7 7 6 6
11 14 20 24 23 21 20 20 21 22 22 22 20 20 19 18 17 15 13 12 12 12 13 13 14 15 15 15 14 13 13 12 12 11 10 10 9 9 9 8 9 11 12 11 11 12 15 15 13 13 13 12 10 8 7 8 7 6 6 5 4 5
13 15 18 21 22 21 20 19 20 22 23 22 21 21 20 19 18 16 14 14 13 13 13 14 15 15 15 15 14 14 13 13 12 11 10 10 8 8 8 7 8 10 11 11 11 12 14 15 13 13 13 13 12 11 9 8 8 7 6 5 5 5
16 18 19 19 19 20 20 20 21 22 22 22 22 22 21 20 19 17 16 15 15 14 14 15 15 15 15 15 14 14 13 13 12 11 10 10 8 7 8 8 8 9 10 11 12 12 13 13 13 13 12 12 12 12 11 10 8 7 6 6 7 7
18 20 21 20 19 19 20 20 22 23 22 23 24 23 22 22 20 18 18 16 16 16 15 15 15 16 16 15 15 14 13 13 12 12 11 10 8 7 7 7 8 8 9 11 11 11 11 12 12 12 11 10 11 11 11 11 10 9 8 9 9 9
20 21 21 21 21 21 21 21 23 23 22 24 25 24 24 23 21 20 19 17 17 17 15 15 16 16 17 16 16 15 13 13 12 12 11 10 9 8 7 7 8 8 9 10 11 11 10 10 11 11 10 9 9 9 10 10 11 10 11 11 12 11
22 23 22 22 22 23 24 24 25 24 23 25 25 25 24 23 22 21 20 18 18 17 16 16 16 17 17 16 16 15 14 13 12 12 11 11 9 7 7 7 8 8 8 9 8 9 9 9 10 10 10 9 8 7 8 9 10 10 11 12 12 12
24 25 24 24 22 23 25 26 27 26 24 25 26 26 25 24 23 22 21 20 19 18 17 17 18 17 17 17 16 16 14 13 13 12 12 11 10 8 7 7 7 6 7 7 6 6 7 8 8 9 9 8 8 7 6 7 8 9 10 11 11 12
26 27 26 25 23 23 25 26 27 27 25 25 26 26 26 26 24 23 22 21 20 19 18 17 19 18 18 17 17 16 15 14 13 13 12 11 11 9 8 7 6 5 5 6 5 5 5 6 7 7 7 7 7 6 6 6 6 7 8 9 10 10
26 27 28 26 24 24 26 28 28 27 27 27 26 27 27 27 26 24 22 22 20 19 18 18 19 19 18 18 17 16 15 15 14 13 13 11 10 9 8 7 7 6 5 4 4 4 3 5 6 6 6 5 5 5 5 5 5 6 6 7 8 9
23 23 24 23 22 21 23 28 28 27 28 28 28 28 28 28 27 25 23 23 21 19 18 18 18 19 19 18 17 17 16 16 15 14 13 12 11 10 9 9 7 6 5 3 3 3 2 3 4 4 4 4 3 4 4 4 5 5 5 6 6 7
19 20 21 21 20 19 22 25 25 27 28 28 29 29 30 30 29 27 25 24 23 20 18 18 18 18 18 18 17 17 17 16 16 15 13 12 11 10 9 8 8 7 5 4 3 2 1 2 4 4 4 4 4 4 4 3 4 4 5 5 5 6
17 18 19 19 18 19 23 24 24 27 28 29 30 29 30 31 30 28 27 25 24 22 21 20 19 18 17 18 17 18 18 16 16 15 14 12 11 10 8 7 7 6 5 4 3 1 1 2 4 5 6 6 6 6 5 5 5 5 4 4 4 5
16 16 16 16 16 18 22 26 26 26 28 28 30 30 30 31 31 30 28 27 26 23 22 21 20 19 18 17 17 17 17 16 15 14 13 12 11 10 8 7 6 5 3 2 2 1 0 2 4 5 6 6 7 7 6 6 6 5 5 4 5 5
16 16 15 15 15 14 16 21 24 25 27 29 31 32 31 31 31 31 30 28 27 25 23 22 21 20 19 18 17 16 15 15 15 13 12 12 11 9 8 7 6 5 4 3 2 1 1 3 4 5 5 6 7 7 7 7 7 6 5 5 6 6
16 17 17 17 16 14 12 13 17 21 26 31 34 34 33 33 32 31 31 30 28 26 25 23 22 21 20 19 17 16 15 14 13 13 12 12 10 9 9 8 7 7 5 4 4 4 4 4 5 6 6 7 7 8 8 8 8 6 5 6 6 6
15 17 19 18 17 16 14 14 15 18 23 30 34 35 34 34 33 31 30 30 29 28 26 25 23 22 22 20 19 18 17 15 14 13 13 12 11 10 10 9 8 8 7 6 7 7 6 7 7 8 7 7 8 8 8 9 10 9 8 9 9 7
14 15 17 18 16 15 15 15 16 17 21 27 32 36 37 34 34 33 30 30 31 29 28 26 25 23 23 22 21 19 18 17 16 15 14 14 12 12 11 10 9 9 8 8 9 10 9 9 9 9 8 8 8 8 8 9 10 10 10 11 10 10
14 14 16 17 16 15 14 15 15 15 17 22 28 35 38 35 34 34 31 30 31 30 29 28 26 25 24 23 22 20 19 18 17 16 16 15 14 13 12 11 10 10 10 10 10 11 10 10 10 9 8 8 9 9 9 10 10 11 11 11 11 11
14 14 15 16 17 15 14 15 14 13 14 17 25 33 37 37 36 35 32 30 31 31 30 28 28 27 26 24 23 21 20 19 19 18 17 16 15 13 12 12 12 11 11 12 11 9 9 9 9 9 8 8 8 8 9 9 10 10 11 10 11 12
12 13 14 15 16 17 15 15 15 14 12 13 21 30 36 38 37 35 33 31 30 31 30 29 29 28 27 26 24 23 22 22 21 20 18 17 16 15 14 15 14 12 12 12 11 8 8 8 7 7 8 8 7 7 7 8 9 10 10 8 7 9
11 12 15 16 16 16 16 16 17 17 15 14 19 27 34 37 36 36 36 33 31 31 31 30 29 29 28 28 26 25 24 23 23 21 19 18 17 17 16 16 15 14 14 13 11 9 9 8 7 7 8 8 7 8 7 8 8 9 10 7 5 5
11 12 15 15 14 15 16 16 17 18 16 15 19 26 35 39 38 38 38 36 33 31 32 30 30 30 30 30 29 27 26 24 23 21 20 19 19 19 18 17 16 16 15 14 13 12 11 10 10 11 12 11 9 8 9 9 9 10 11 10 7 5
10 12 12 12 13 15 14 11 12 16 17 17 21 27 35 39 39 39 39 40 36 33 33 32 31 32 32 31 31 30 28 25 24 23 22 21 20 20 20 19 18 18 18 16 15 14 13 13 13 14 14 11 8 9 11 11 10 11 12 12 11 9
9 10 11 12 14 15 11 5 5 10 15 18 20 25 33 38 39 39 40 41 39 36 35 33 33 35 34 33 32 31 29 27 25 23 22 21 20 20 21 20 20 20 19 17 15 15 14 14 14 14 15 14 12 12 14 15 13 12 13 13 12 12
10 10 12 14 15 14 12 7 5 7 12 18 20 22 30 35 37 39 41 42 40 37 35 34 36 37 35 33 32 31 30 29 26 23 22 20 20 21 22 21 21 20 19 18 16 16 15 15 14 15 15 14 13 13 15 17 15 12 13 14 13 13
10 11 12 13 13 12 10 7 6 6 9 17 24 27 30 32 34 37 40 40 38 35 33 35 38 40 38 35 33 31 32 30 26 24 23 22 22 23 23 23 22 21 20 19 18 18 17 16 16 17 16 16 15 14 15 18 17 14 13 14 15 15
10 11 11 12 12 10 8 6 5 4 6 13 24 30 30 31 33 35 36 36 34 33 33 33 37 40 40 37 33 31 32 31 28 26 25 24 24 25 25 26 25 24 23 22 21 20 19 19 19 18 18 17 17 16 17 19 20 18 17 17 17 18
11 11 12 13 14 14 12 9 6 3 5 9 18 27 31 33 35 35 35 35 34 33 33 33 35 37 36 34 32 31 32 32 29 27 26 25 26 26 27 28 27 27 26 26 25 23 21 21 20 20 18 17 18 18 19 20 20 19 19 19 20 20
14 12 13 13 14 15 14 12 10 8 5 8 14 23 30 33 34 32 30 31 33 34 33 32 32 32 30 29 28 29 30 31 28 25 24 24 25 26 26 27 28 28 28 27 27 25 23 22 21 21 19 18 19 20 20 20 20 20 20 20 21 22
Wind_Direction
225 222 222 221 217 206 199 193 187 184 182 180 174 171 172 171 170 164 159 157 155 154 154 153 150 147 144 140 140 134 125 121 119 119 113 105 100 97 95 95 96 97 98 103 104 105 105 101 96 93 90 85 83 83 86 88 88 88 89 88 81 77
224 222 220 219 221 219 209 201 196 189 184 182 179 176 178 175 170 167 164 165 165 161 159 157 151 149 147 146 145 136 128 124 124 121 114 107 102 97 96 96 97 96 95 98 102 103 99 94 91 93 92 84 83 87 87 86 86 86 89 91 87 83
218 221 225 222 219 221 214 205 202 196 187 186 183 178 179 176 171 170 170 174 173 167 164 162 156 153 152 153 149 138 130 128 126 122 117 112 106 102 101 101 100 98 95 93 92 92 89 88 90 92 91 90 100 105 99 92 89 86 86 91 92 90
213 218 229 229 220 217 216 209 205 201 192 188 186 181 179 178 176 176 178 180 174 168 167 166 160 157 156 155 149 138 131 129 128 124 120 116 111 107 103 100 97 93 90 88 87 89 92 93 94 94 91 92 100 102 100 100 99 94 89 91 93 93
213 217 229 235 228 216 214 211 206 202 197 192 187 183 181 180 184 185 183 184 175 168 168 168 163 160 158 155 146 137 132 130 129 126 124 121 117 108 102 98 95 92 89 90 91 93 97 94 89 91 96 101 103 108 110 106 104 100 93 88 86 87
219 223 227 234 237 224 213 211 206 202 199 197 191 186 183 183 189 191 188 188 179 168 167 169 165 161 159 157 148 139 135 133 130 128 127 126 120 111 107 105 101 99 94 94 95 93 94 91 85 85 90 95 100 103 104 102 104 102 96 88 81 79
227 231 228 231 238 233 219 208 204 202 199 199 196 189 186 187 191 193 192 193 185 171 168 169 167 164 162 161 153 144 140 136 132 130 130 128 122 118 115 111 108 103 97 93 92 89 85 80 75 73 74 77 82 85 86 92 102 103 98 89 81 78
218 228 230 232 236 237 228 212 203 201 200 200 198 192 187 189 193 194 195 195 188 174 169 170 170 169 168 166 158 149 145 141 137 135 134 130 125 125 122 116 112 105 97 92 87 84 79 73 68 63 62 65 70 79 81 81 85 93 96 93 88 83
206 220 228 232 233 234 233 223 208 201 201 201 199 194 189 191 193 195 196 194 188 178 173 172 172 173 172 170 163 155 151 148 145 142 137 133 130 133 127 120 117 108 100 94 89 84 79 76 70 63 59 58 61 68 72 70 69 74 81 82 82 81
206 212 220 226 229 230 234 233 221 207 202 202 201 198 193 192 194 196 196 195 192 184 178 174 172 175 176 173 168 162 157 155 154 150 141 135 138 140 132 124 118 111 105 99 91 84 81 81 76 67 60 56 56 60 62 62 61 60 62 65 67 70
207 205 208 216 224 229 232 234 232 220 207 202 203 202 196 194 195 195 196 198 196 189 182 176 173 175 176 175 173 168 164 162 159 156 148 141 144 147 138 131 122 115 108 100 91 85 83 83 81 73 63 55 52 55 59 60 58 56 57 62 65 65
205 203 205 210 216 224 228 228 231 228 214 205 205 204 200 197 196 196 198 199 196 192 186 178 175 174 175 176 175 173 170 169 166 161 156 149 155 158 146 136 124 118 108 98 93 90 87 86 83 78 69 59 50 47 53 58 59 58 58 59 59 58
202 200 203 206 208 214 218 218 221 223 216 209 207 206 203 200 197 197 199 201 198 194 188 181 179 176 175 178 178 178 175 175 174 167 161 157 162 161 149 138 126 120 109 100 98 98 96 92 87 83 78 68 56 45 44 49 53 55 55 55 55 54
204 201 203 207 205 206 205 205 209 211 210 209 208 207 206 203 199 198 201 202 200 197 191 183 184 180 178 181 182 181 178 179 179 172 165 161 161 158 153 144 133 126 113 102 102 104 103 97 92 88 84 78 68 53 43 41 41 44 48 50 51 49
209 206 210 213 207 204 202 202 206 204 203 206 207 207 208 206 203 200 201 202 201 199 194 186 187 185 182 183 184 184 181 182 181 174 170 163 159 162 161 149 137 130 118 110 104 103 102 98 97 94 90 88 81 68 55 47 39 37 38 41 45 45
213 212 216 217 210 206 205 205 207 205 202 203 206 208 208 208 207 204 203 202 202 201 196 190 188 187 185 186 186 184 183 185 182 175 175 167 162 164 158 151 150 141 123 115 103 92 92 95 102 101 96 97 93 85 72 62 52 44 37 36 40 41
218 217 219 219 213 211 210 206 206 207 206 203 205 208 209 209 208 207 205 204 204 201 197 192 192 190 186 188 189 188 187 187 183 180 179 171 168 168 162 162 164 151 134 121 105 93 86 91 100 102 98 100 99 93 85 76 68 60 48 41 41 41
228 230 232 231 224 222 222 214 205 205 210 206 202 206 209 209 209 209 206 205 204 200 197 193 194 194 190 191 192 191 190 187 185 185 181 174 173 176 175 173 167 161 154 144 121 101 88 84 84 83 85 88 83 74 73 79 77 72 62 51 45 46
240 240 242 243 235 234 237 231 215 206 211 210 204 205 209 209 208 209 206 204 204 199 194 192 194 195 193 193 191 190 189 188 187 185 182 177 175 176 177 175 169 170 166 156 146 104 47 35 42 39 38 37 34 31 29 48 61 61 64 63 56 51
246 238 238 243 243 244 246 245 232 214 209 212 209 205 210 211 207 208 208 204 204 201 194 191 191 192 194 193 189 188 187 187 187 184 180 177 176 175 174 178 178 176 169 158 153 132 13 358 7 9 10 7 10 14 7 14 35 43 47 54 54 50
248 238 239 246 252 255 252 251 246 226 210 212 215 207 208 214 209 206 208 205 204 204 199 193 191 190 191 191 189 189 187 184 185 184 181 179 181 182 182 192 199 195 192 190 186 182 305 344 348 352 357 355 357 4 1 0 8 17 27 36 36 37
243 233 231 240 251 263 262 254 251 238 218 212 217 213 206 211 213 207 206 208 206 205 204 200 196 193 192 192 190 191 190 187 186 186 187 189 190 191 199 209 216 223 227 237 255 263 296 322 329 333 344 346 343 347 349 349 350 354 12 29 28 27
245 236 232 237 245 255 258 250 252 249 234 219 216 216 210 207 212 210 206 208 209 207 206 204 202 199 197 197 194 194 197 195 196 196 198 202 203 204 211 219 226 237 244 261 276 285 295 304 311 319 331 334 333 338 341 338 337 337 346 356 2 10
248 242 237 236 239 245 244 237 239 244 239 229 219 215 213 208 207 210 208 207 209 209 207 207 206 204 202 201 200 198 200 201 203 208 211 214 214 215 218 224 233 243 251 264 276 284 294 303 308 315 323 324 328 338 336 331 330 327 324 328 331 335
252 243 237 233 233 240 243 237 231 228 228 232 227 217 214 210 203 205 209 207 209 211 209 208 208 210 209 206 203 201 203 204 205 211 217 220 221 222 224 228 236 246 257 264 271 280 291 301 305 309 313 313 319 326 325 325 328 326 324 325 322 320
252 248 241 234 230 236 243 239 235 235 234 241 241 226 216 210 202 201 207 209 210 211 212 210 208 211 214 213 208 203 204 209 211 215 220 225 227 229 231 233 236 243 253 260 267 278 288 294 299 305 307 306 310 316 321 325 328 328 331 334 329 326
247 248 244 234 230 237 243 241 241 248 253 250 245 234 220 210 203 200 206 212 211 212 214 213 211 211 215 218 215 207 204 208 213 218 222 227 232 235 238 241 241 240 245 254 264 276 282 286 299 306 302 302 306 313 323 331 334 335 339 345 342 340
244 246 244 236 234 239 240 243 243 241 248 244 239 235 221 209 202 200 206 214 215 213 214 216 214 213 214 219 219 213 207 205 210 216 221 226 229 232 234 241 246 244 244 251 258 262 262 272 290 293 288 292 296 302 313 326 334 333 334 346 353 346
243 243 245 240 237 239 239 242 240 234 235 230 229 228 218 210 205 202 205 213 217 214 212 215 216 215 215 218 221 219 213 208 207 212 218 222 225 229 231 236 243 245 243 244 246 247 247 256 266 262 265 270 274 284 295 306 315 314 313 323 345 346
234 235 238 236 233 236 242 249 244 235 232 228 226 222 215 212 209 204 205 211 216 216 213 215 217 216 215 215 219 222 220 214 208 209 215 218 222 228 232 233 236 239 237 235 238 244 248 253 255 248 244 241 242 257 269 277 283 287 292 298 310 320
225 227 227 223 224 230 238 255 250 237 235 231 224 218 214 212 209 207 207 208 214 218 217 216 218 218 216 214 217 221 223 219 213 212 214 217 221 226 231 233 233 235 236 233 236 243 251 257 259 261 265 267 270 270 270 272 273 280 289 294 302 310
226 223 221 218 221 222 220 229 234 231 237 236 227 217 212 212 212 212 210 209 213 218 218 217 218 221 220 217 216 218 221 223 219 217 218 220 224 229 234 236 236 238 239 239 242 247 255 263 270 279 290 302 307 301 298 294 288 289 296 302 310 315
229 225 224 221 215 205 196 195 198 209 225 232 230 220 212 213 215 215 214 213 213 216 218 218 217 220 224 223 221 219 220 224 224 224 226 228 232 236 240 242 242 243 245 247 250 254 259 265 272 278 284 291 294 294 296 294 286 284 292 298 304 309
228 227 225 218 208 196 192 205 215 220 228 225 221 216 213 216 218 217 217 215 215 216 218 218 216 215 219 224 225 223 222 223 224 228 232 235 239 242 244 245 245 246 248 249 251 255 260 264 268 272 277 283 287 286 288 287 282 277 281 286 291 297
224 225 217 206 202 195 191 199 201 231 253 227 218 216 213 213 216 217 217 216 215 215 216 219 217 212 212 218 223 223 223 222 221 225 230 235 240 244 246 247 247 247 246 247 248 251 255 259 264 268 273 280 288 291 287 283 280 279 281 283 287 291
219 221 213 203 202 196 187 182 159 159 251 233 219 218 215 215 217 214 213 213 212 214 216 217 214 208 208 215 220 222 223 222 221 220 224 232 238 243 246 248 249 248 248 248 249 250 252 257 263 268 271 276 285 287 280 274 274 275 278 281 285 287
213 216 215 208 208 203 194 187 162 143 198 222 212 214 216 218 215 207 205 207 206 208 212 210 207 206 210 217 222 223 222 222 223 223 225 231 238 243 248 250 251 250 249 250 252 254 256 260 263 266 268 270 275 279 277 274 273 274 276 278 280 282